{"data":{"norad_id":43943,"epoch":"2026-05-25T05:03:45.972864Z","epoch_age_seconds":46963,"freshness":"FRESH","line1":"1 43943U 19005B   26145.21094876  .00004692  00000+0  21928-3 0  9998","line2":"2 43943  97.4723 240.3754 0003139 141.6700 218.4758 15.20275710405652","mean_motion":15.2027571,"eccentricity":0.0003139,"inclination_deg":97.4723,"raan_deg":240.3754,"arg_perigee_deg":141.67,"mean_anomaly_deg":218.4758,"bstar":0.00021928,"rev_number":40565,"period_min":94.719661080423,"perigee_km":502.84767223265,"apogee_km":507.16891084668,"semimajor_km":6883.1452915397,"source":"CELESTRAK","updated_at":"2026-05-25T13:37:55.933251Z"}}